[[{"header":{"parameterUnit":"m.s-1","parameterCategory":1,"la1":30.2991,"la2":30.254,"lo1":-89.0895,"lo2":-89.0444,"dy":0.0017,"dx":0.0017,"nx":28,"ny":28,"refTime":"2024-06-10T09:00:00:Z","depth":0,"parameterNumber":2,"parameterNumberName":"U-component_of_WINDS"},"data":[0,0,0,0,0,0,0,0,0,0,0,0,0,0,0,0,0,0,0,0,0,0,0,0,0,0,0,0,0,0,0,0,0,0,0,0,0,0,0,0,0,0,0,0,0,0,0,0,0,0,0,0,0,0,0,0,0,0,-0.0475,-0.0474,0,-0.036,-0.0359,-0.0358,-0.0267,-0.0266,-0.0265,-0.0264,-0.0149,-0.0146,-0.0144,0,0,0,0,0,0,0,0,0,0,0,0,0,-0.0617,-0.0615,-0.0475,-0.0473,-0.0472,-0.0361,-0.0359,-0.0357,-0.0267,-0.0266,-0.0265,-0.0264,-0.0149,-0.0147,-0.0144,0,0,0,0,0,0,0,0,0,0,0,0,0,-0.0535,-0.0615,-0.0475,-0.0414,-0.0407,-0.0361,-0.0359,-0.0357,-0.0267,-0.0266,-0.0265,-0.0263,-0.015,-0.0147,-0.0144,-0.015,0,0,-0.0133,-0.0132,0,0,0,0,0,0,0,0,-0.0539,-0.053,-0.0424,-0.0418,-0.041,-0.0326,-0.0367,-0.0288,-0.0268,-0.032,-0.0264,-0.0263,-0.0209,-0.0201,-0.0182,-0.0145,-0.014,-0.0133,-0.0131,-0.013,-0.0129,0,0,0,0,0,0,0,-0.0545,-0.0534,-0.043,-0.0423,-0.0414,-0.0392,-0.0379,-0.0351,-0.0274,-0.0316,-0.0309,-0.0296,-0.0205,-0.0186,-0.0179,-0.0138,-0.0133,-0.013,-0.0128,-0.0127,-0.0101,-0.0103,0,0,0,0,0,0,-0.056,-0.0539,-0.0433,-0.0426,-0.0473,-0.0391,-0.0376,-0.0355,-0.0274,-0.026,-0.0298,-0.0293,-0.0192,-0.0183,-0.0175,-0.0178,-0.013,-0.0126,-0.0125,-0.01,-0.0102,-0.0103,0,0,0,0,0,0,-0.0564,-0.0552,-0.0438,-0.0481,-0.0465,-0.039,-0.0367,-0.0353,-0.0334,-0.026,-0.0246,-0.0292,-0.0191,-0.0179,-0.0157,-0.0173,-0.0125,-0.0122,-0.0098,-0.01,-0.0102,-0.0185,0,0,0,0,0,0,-0.0568,-0.0553,-0.0555,-0.0481,-0.0463,-0.0422,-0.0368,-0.0352,-0.0328,-0.032,-0.0251,-0.0239,-0.0189,-0.0163,-0.0154,-0.0167,-0.0119,-0.0097,-0.0099,-0.0102,-0.018,-0.0189,-0.0197,0,0,0,0,0,-0.0574,-0.0582,-0.0555,-0.0543,-0.0463,-0.0423,-0.0412,-0.0355,-0.033,-0.0331,-0.0284,-0.0241,-0.0172,-0.0161,-0.015,-0.0163,-0.0095,-0.0099,-0.0101,-0.0176,-0.0187,-0.0197,0,0,0,0,0,0,-0.066,-0.0572,-0.0541,-0.0526,-0.0483,-0.0408,-0.0407,-0.0368,-0.0331,-0.0325,-0.0255,-0.0241,-0.0227,-0.0192,-0.0181,-0.0166,-0.0128,-0.0129,-0.0189,-0.0199,-0.0207,-0.0217,-0.0117,0,0,0,0,0,-0.0677,-0.0652,-0.0576,-0.0571,-0.055,-0.0483,-0.0464,-0.0423,-0.0375,-0.0357,-0.0308,-0.0264,-0.0233,-0.0213,-0.018,-0.0174,-0.0159,-0.0178,-0.0186,-0.0193,-0.0196,-0.0192,-0.02,-0.0113,-0.0113,-0.0113,0,0,-0.0713,-0.0661,-0.065,-0.0587,-0.0548,-0.0525,-0.0468,-0.0445,-0.0427,-0.0353,-0.033,-0.0293,-0.0239,-0.0226,-0.0217,-0.0196,-0.0216,-0.0197,-0.0203,-0.0202,-0.0196,-0.0204,-0.0211,-0.0115,-0.0115,-0.0114,0,0,-0.0766,-0.0724,-0.0715,-0.0678,-0.0621,-0.0576,-0.0574,-0.0505,-0.0477,-0.0452,-0.0397,-0.0375,-0.0321,-0.0286,-0.0261,-0.0302,-0.0262,-0.0293,-0.0337,-0.0334,-0.0341,-0.0347,-0.0363,-0.037,-0.0295,-0.0295,-0.0295,0,-0.0818,-0.0779,-0.0716,-0.0697,-0.0671,-0.0602,-0.0594,-0.0561,-0.0496,-0.0481,-0.0458,-0.0391,-0.035,-0.0328,-0.0338,-0.0319,-0.0316,-0.0301,-0.0345,-0.035,-0.0354,-0.0369,-0.0375,-0.0299,-0.0299,-0.0298,-0.0298,0,-0.0847,-0.0821,-0.0821,-0.076,-0.0734,-0.0721,-0.0656,-0.0638,-0.0599,-0.0557,-0.0534,-0.0482,-0.0438,-0.0429,-0.0391,-0.0402,-0.0391,-0.0358,-0.0319,-0.0368,-0.0381,-0.0386,-0.0306,-0.0304,-0.0303,-0.0302,0,0,-0.0952,-0.0856,-0.0858,-0.083,-0.0761,-0.0741,-0.0724,-0.0681,-0.0668,-0.0625,-0.0611,-0.0567,-0.0536,-0.0508,-0.0465,-0.0462,-0.05,-0.0429,-0.0427,-0.0446,-0.0512,-0.0539,-0.0547,-0.0472,-0.0473,-0.0474,-0.0517,0,-0.0996,-0.0962,-0.0905,-0.0891,-0.0867,-0.0801,-0.0787,-0.0745,-0.0705,-0.0679,-0.0635,-0.0607,-0.0566,-0.0549,-0.0543,-0.0497,-0.0513,-0.0493,-0.046,-0.046,-0.0478,-0.0553,-0.0581,-0.0624,-0.0521,-0.0522,-0.0522,0,-0.1043,-0.1005,-0.0988,-0.0922,-0.091,-0.0898,-0.0855,-0.0831,-0.0781,-0.0753,-0.0722,-0.0675,-0.0655,-0.0619,-0.0592,-0.0579,-0.0562,-0.0538,-0.0538,-0.0534,-0.0496,-0.0553,-0.0636,-0.0644,-0.0529,-0.0529,-0.0528,0,-0.1125,-0.1068,-0.1051,-0.1029,-0.0951,-0.0945,-0.0913,-0.0862,-0.084,-0.0801,-0.0787,-0.0747,-0.0726,-0.0696,-0.064,-0.0619,-0.062,-0.0578,-0.0597,-0.0599,-0.0602,-0.0603,-0.0686,-0.0588,-0.0588,-0.0588,-0.0587,0,-0.1181,-0.1174,-0.1087,-0.1077,-0.1067,-0.1001,-0.0994,-0.0955,-0.0911,-0.0893,-0.0833,-0.0817,-0.0743,-0.072,-0.0676,-0.0661,-0.0651,-0.0629,-0.0618,-0.0635,-0.0639,-0.0625,-0.0621,-0.0589,-0.0589,-0.0589,-0.0588,0,-0.1271,-0.1212,-0.119,-0.1118,-0.11,-0.1096,-0.1035,-0.1024,-0.098,-0.0958,-0.0949,-0.0881,-0.085,-0.0791,-0.0743,-0.0714,-0.0709,-0.0688,-0.0727,-0.072,-0.0743,-0.0742,-0.0822,-0.0829,-0.0725,-0.0726,-0.0727,0,-0.1312,-0.1305,-0.1233,-0.1216,-0.1186,-0.116,-0.1137,-0.1072,-0.1051,-0.0994,-0.099,-0.0954,-0.0922,-0.0876,-0.0823,-0.0786,-0.0765,-0.0795,-0.076,-0.0778,-0.0768,-0.077,-0.077,-0.0805,-0.0806,-0.0807,-0.0808,0,-0.1392,-0.1363,-0.1332,-0.1292,-0.1266,-0.1231,-0.1193,-0.1183,-0.1109,-0.1089,-0.1056,-0.1032,-0.0983,-0.0949,-0.0905,-0.0872,-0.0829,-0.082,-0.0822,-0.0842,-0.0865,-0.0855,-0.0751,-0.0819,-0.0817,-0.0817,-0.0816,-0.0816,-0.146,-0.1451,-0.1399,-0.1367,-0.1331,-0.1297,-0.1283,-0.1238,-0.1209,-0.1165,-0.1128,-0.1099,-0.105,-0.0987,-0.0957,-0.0934,-0.0913,-0.0916,-0.0917,-0.092,-0.0928,-0.0867,-0.0925,-0.0925,-0.0924,-0.0924,-0.0924,0,-0.1538,-0.1501,-0.1472,-0.1421,-0.1396,-0.1356,-0.1312,-0.1295,-0.127,-0.1228,-0.1198,-0.1161,-0.1128,-0.1072,-0.1034,-0.1027,-0.1006,-0.1019,-0.102,-0.1014,-0.0948,-0.095,-0.1037,-0.1037,-0.1037,-0.1037,-0.1037,-0.1037,-0.1576,-0.156,-0.1525,-0.1491,-0.1454,-0.1425,-0.1404,-0.1373,-0.1339,-0.1301,-0.1273,-0.1236,-0.1189,-0.1148,-0.1116,-0.11,-0.109,-0.111,-0.1089,-0.1029,-0.1018,-0.1008,-0.101,-0.1108,-0.1108,-0.1157,-0.1157,-0.1158]},{"header":{"parameterUnit":"m.s-1","parameterCategory":1,"la1":30.2991,"la2":30.254,"lo1":-89.0895,"lo2":-89.0444,"dy":0.0017,"dx":0.0017,"nx":28,"ny":28,"refTime":"2024-06-10T09:00:00:Z","depth":0,"parameterNumber":3,"parameterNumberName":"V-component_of_WINDS"},"data":[0,0,0,0,0,0,0,0,0,0,0,0,0,0,0,0,0,0,0,0,0,0,0,0,0,0,0,0,0,0,0,0,0,0,0,0,0,0,0,0,0,0,0,0,0,0,0,0,0,0,0,0,0,0,0,0,0,0,2.089,2.089,0,2.087,2.087,2.0869,2.0854,2.0854,2.0854,2.0854,2.0831,2.083,2.083,0,0,0,0,0,0,0,0,0,0,0,0,0,2.0915,2.0914,2.089,2.089,2.089,2.087,2.087,2.0869,2.0854,2.0854,2.0854,2.0854,2.0831,2.083,2.083,0,0,0,0,0,0,0,0,0,0,0,0,0,2.09,2.0914,2.0891,2.088,2.0879,2.087,2.087,2.0869,2.0854,2.0854,2.0854,2.0854,2.0831,2.0831,2.083,2.0829,0,0,2.0827,2.0827,0,0,0,0,0,0,0,0,2.0901,2.0899,2.0882,2.0881,2.088,2.0865,2.087,2.0856,2.0855,2.0864,2.0854,2.0854,2.0842,2.084,2.0837,2.0828,2.0827,2.0827,2.0827,2.0827,2.0826,0,0,0,0,0,0,0,2.0902,2.09,2.0882,2.0882,2.088,2.0876,2.0874,2.0867,2.0854,2.0863,2.0862,2.086,2.0841,2.0838,2.0836,2.0826,2.0827,2.0827,2.0826,2.0826,2.0815,2.0815,0,0,0,0,0,0,2.0905,2.0901,2.0883,2.0882,2.089,2.0876,2.0873,2.087,2.0854,2.0852,2.086,2.0859,2.0839,2.0837,2.0835,2.0833,2.0827,2.0826,2.0825,2.0815,2.0815,2.0815,0,0,0,0,0,0,2.0906,2.0904,2.0884,2.0891,2.0888,2.0875,2.0872,2.0869,2.0866,2.0852,2.0849,2.0859,2.0839,2.0836,2.0831,2.0832,2.0826,2.0825,2.0815,2.0815,2.0815,2.0828,0,0,0,0,0,0,2.0906,2.0904,2.0904,2.0891,2.0888,2.088,2.0872,2.0869,2.0865,2.0863,2.085,2.0848,2.0839,2.0832,2.083,2.0831,2.0824,2.0814,2.0815,2.0815,2.0828,2.0829,2.083,0,0,0,0,0,2.0907,2.0908,2.0904,2.0902,2.0888,2.088,2.0878,2.0868,2.0865,2.0864,2.0855,2.0848,2.0832,2.0831,2.0829,2.083,2.0814,2.0815,2.0815,2.0827,2.0829,2.083,0,0,0,0,0,0,2.092,2.0906,2.0901,2.0898,2.0891,2.0878,2.0877,2.087,2.0863,2.0862,2.085,2.0847,2.0842,2.0835,2.0835,2.0828,2.0822,2.0822,2.0832,2.0834,2.0835,2.0836,2.0824,0,0,0,0,0,2.0923,2.0919,2.0906,2.0904,2.0901,2.089,2.0886,2.0879,2.087,2.0867,2.0858,2.0849,2.0842,2.0837,2.083,2.0827,2.0823,2.0826,2.0827,2.0828,2.0828,2.0825,2.0826,2.0816,2.0816,2.0816,0,0,2.0928,2.092,2.0918,2.0907,2.09,2.0895,2.0887,2.0882,2.0878,2.0866,2.086,2.0853,2.0842,2.0837,2.0835,2.0832,2.083,2.0829,2.083,2.0829,2.0826,2.0827,2.0828,2.0817,2.0816,2.0816,0,0,2.0935,2.0928,2.0926,2.092,2.091,2.0902,2.0902,2.089,2.0885,2.0879,2.087,2.0864,2.0853,2.0845,2.084,2.0845,2.0837,2.0843,2.0848,2.0846,2.0847,2.0847,2.0848,2.0849,2.0843,2.0843,2.0843,0,2.0942,2.0935,2.0925,2.0921,2.0917,2.0906,2.0903,2.0897,2.0885,2.0882,2.0879,2.0864,2.0856,2.085,2.0851,2.0847,2.0845,2.0844,2.0847,2.0848,2.0848,2.0849,2.085,2.0843,2.0843,2.0843,2.0843,0,2.0944,2.0939,2.0939,2.0928,2.0923,2.092,2.0909,2.0906,2.0899,2.0892,2.0886,2.0876,2.0867,2.0865,2.0858,2.0857,2.0855,2.085,2.0844,2.085,2.0851,2.0851,2.0844,2.0844,2.0844,2.0844,0,0,2.0958,2.0943,2.0942,2.0937,2.0926,2.0922,2.0918,2.0909,2.0906,2.0898,2.0894,2.0885,2.088,2.0874,2.0866,2.0864,2.0868,2.0859,2.0859,2.0861,2.0865,2.0868,2.0869,2.0863,2.0863,2.0863,2.0866,0,2.0962,2.0955,2.0946,2.0942,2.0937,2.0927,2.0923,2.0916,2.0909,2.0903,2.0895,2.0888,2.0883,2.0879,2.0877,2.0868,2.0868,2.0868,2.0858,2.0858,2.0861,2.0869,2.0873,2.0876,2.0866,2.0866,2.0866,0,2.0966,2.096,2.0955,2.0944,2.0941,2.0938,2.093,2.0925,2.0916,2.0911,2.0904,2.0897,2.0891,2.0887,2.0878,2.0878,2.0874,2.0869,2.0869,2.0867,2.0862,2.0867,2.0877,2.0877,2.0866,2.0866,2.0866,0,2.0976,2.0966,2.0962,2.0958,2.0945,2.0943,2.0937,2.0928,2.0924,2.0916,2.0913,2.0904,2.09,2.0893,2.0883,2.0881,2.0876,2.087,2.0871,2.0871,2.0869,2.087,2.0878,2.0868,2.0868,2.0868,2.0868,0,2.0981,2.0979,2.0966,2.0963,2.096,2.095,2.0946,2.094,2.0932,2.0927,2.0918,2.0913,2.0901,2.0895,2.0887,2.0881,2.0879,2.0874,2.0872,2.0875,2.0875,2.0871,2.0871,2.0868,2.0868,2.0868,2.0868,0,2.0991,2.0983,2.0978,2.0966,2.0963,2.0961,2.0951,2.0948,2.094,2.0935,2.0933,2.0921,2.0913,2.0903,2.0892,2.0887,2.0882,2.0878,2.0885,2.0883,2.0884,2.0884,2.089,2.089,2.088,2.0881,2.0881,0,2.0995,2.0993,2.0982,2.0978,2.0973,2.0968,2.0963,2.0953,2.0949,2.0938,2.0936,2.0928,2.0921,2.0909,2.0899,2.0891,2.0887,2.089,2.0886,2.0888,2.0886,2.0886,2.0886,2.089,2.0891,2.0891,2.0891,0,2.1003,2.0999,2.0993,2.0986,2.0981,2.0974,2.0967,2.0965,2.0954,2.0949,2.0942,2.0936,2.0925,2.0917,2.0907,2.0901,2.0894,2.0892,2.0892,2.0894,2.0898,2.0895,2.0887,2.0892,2.0892,2.0892,2.0892,2.0892,2.1009,2.1007,2.0998,2.0992,2.0986,2.098,2.0976,2.0969,2.0963,2.0954,2.0948,2.0941,2.0931,2.0918,2.0912,2.0905,2.0902,2.0902,2.0902,2.0901,2.0902,2.09,2.0903,2.0903,2.0903,2.0903,2.0903,0,2.1016,2.101,2.1004,2.0996,2.0991,2.0985,2.0977,2.0973,2.0967,2.096,2.0953,2.0944,2.0937,2.0926,2.0917,2.0914,2.0911,2.0912,2.0912,2.0911,2.0905,2.0907,2.0915,2.0915,2.0915,2.0915,2.0915,2.0915,2.1018,2.1014,2.1009,2.1001,2.0995,2.0988,2.0984,2.0978,2.0972,2.0963,2.0957,2.0951,2.0942,2.0932,2.0924,2.0921,2.0918,2.0921,2.0917,2.0912,2.0911,2.091,2.0911,2.092,2.092,2.0922,2.0922,2.0922]}]]